sat.trackr.live / text

‹ back to catalog

STARLINK-2500

NORAD 48485 · 2021-040BK

PAYLOAD ACTIVE UNKNOWN

§ Identity

Operator
Country
US
Launch date
2021-05-09
Launch site
AFETR
Launch vehicle
Mass (kg)
RCS (m²)

Purposes: comms

External: N2YO · Heavens-Above · Gunter

§ Orbital elements

Epoch: 2026-09-15T09:44:16.752480Z

Period
94.01 min
Inclination
53.1583°
Eccentricity
0.0001366
Mean motion
15.31707455 rev/d
Perigee alt
469.8 km
Apogee alt
471.7 km
Semi-major
6,848.9 km
B*
6.3250e-5
RAAN
30.8328°
Arg perigee
90.2944°
Mean anomaly
269.8214°
Rev number
29,553

§ Raw data

STARLINK-25001 48485U 21040BK  26258.40574945  .00001598  00000+0  63250-4 0  99992 48485  53.1583  30.8328 0001366  90.2944 269.8214 15.31707455295538

JSON: /api/v1/satellites/48485 · /tle

For live sub-satellite position, see the globe view (requires WebGL).

§ Visibility from observer

Set your observer location to see the next 7 days of passes ≥ 10°. The values pass through the URL so the page stays shareable.

No JS? Fill the form by hand. The geolocation button needs JavaScript.